Weather History for Big Bear City, CA

Change the Weather History Date:

Monday, May 28, 2012

  Actual Average (KBUO) Record (KBUO)
Temperature  
Mean Temperature 47 °F -  
Max Temperature 66 °F 77 °F 98 °F (2000)
Min Temperature 28 °F 52 °F 46 °F (1998)
Degree Days  
Heating Degree Days 18    
Moisture  
Dew Point 23 °F    
Average Humidity 42    
Maximum Humidity 75    
Minimum Humidity 16    
Precipitation  
Precipitation 0.00 in - - ()
Sea Level Pressure  
Sea Level Pressure 30.15 in    
Wind  
Wind Speed 3 mph (North)    
Max Wind Speed 13 mph    
Max Gust Speed 20 mph    
Visibility 10 miles    
Events      
Averages and records for this station are not official NWS values.
T = Trace of Precipitation, MM = Missing Value Source: NWS Daily Summary

Daily Weather History Graph

Daily Weather History Graph

Search for Another Location

Airport:

Trip Planner

Search our weather history database for the weather conditions in past years. The results will help you decide how hot, cold, wet, or windy it might be!

Date:

Astronomy

May. 28, 2012 Rise Set
Actual Time 5:37 AM PDT 7:52 PM PDT
Civil Twilight 5:09 AM PDT 8:20 PM PDT
Nautical Twilight 4:34 AM PDT 8:55 PM PDT
Astronomical Twilight 3:56 AM PDT 9:34 PM PDT
Moon 12:40 PM PDT (5/28) 12:43 AM PDT (5/28)
Length of Visible Light 15h 11m
Length of Day
14h 14m
Waxing Crescent, 49% of the Moon is Illuminated
May 28
Waxing Crescent
May 28
First Quarter
Jun 4
Full
Jun 11
Last Quarter
Jun 19
New

Hourly Weather History & Observations

Time (PDT) Temp. Dew Point Humidity Pressure Visibility Wind Dir Wind Speed Gust Speed Precip Events Conditions
12:15 AM 33.8 °F 19.4 °F 56% 30.16 in 10.0 mi Calm Calm - N/A   Clear
12:35 AM 33.8 °F 19.4 °F 56% 30.16 in 10.0 mi Calm Calm - N/A   Clear
12:55 AM 32.0 °F 19.4 °F 60% 30.15 in 10.0 mi Calm Calm - N/A   Clear
1:15 AM 32.0 °F 19.4 °F 60% 30.15 in 10.0 mi Calm Calm - N/A   Clear
1:35 AM 32.0 °F 19.4 °F 60% 30.14 in 10.0 mi Calm Calm - N/A   Clear
1:55 AM 32.0 °F 19.4 °F 60% 30.14 in 10.0 mi Calm Calm - N/A   Clear
2:15 AM 32.0 °F 19.4 °F 60% 30.14 in 10.0 mi Calm Calm - N/A   Clear
2:35 AM 32.0 °F 19.4 °F 60% 30.14 in 10.0 mi Calm Calm - N/A   Clear
2:55 AM 30.2 °F 19.4 °F 64% 30.14 in 10.0 mi Calm Calm - N/A   Clear
3:15 AM 30.2 °F 19.4 °F 64% 30.14 in 10.0 mi Calm Calm - N/A   Clear
3:35 AM 30.2 °F 17.6 °F 60% 30.14 in 10.0 mi Calm Calm - N/A   Clear
3:55 AM 30.2 °F 17.6 °F 60% 30.14 in 10.0 mi Calm Calm - N/A   Clear
4:15 AM 28.4 °F 17.6 °F 64% 30.14 in 10.0 mi Calm Calm - N/A   Clear
4:35 AM 28.4 °F 17.6 °F 64% 30.14 in 10.0 mi Calm Calm - N/A   Clear
4:55 AM 28.4 °F 17.6 °F 64% 30.14 in 10.0 mi Calm Calm - N/A   Clear
5:15 AM 28.4 °F 17.6 °F 64% 30.14 in 10.0 mi Calm Calm - N/A   Clear
5:35 AM 28.4 °F 17.6 °F 64% 30.14 in 10.0 mi Calm Calm - N/A   Clear
5:55 AM 28.4 °F 17.6 °F 64% 30.14 in 10.0 mi Calm Calm - N/A   Clear
6:15 AM 28.4 °F 17.6 °F 64% 30.14 in 10.0 mi Calm Calm - N/A   Clear
6:35 AM 32.0 °F 19.4 °F 60% 30.15 in 10.0 mi Calm Calm - N/A   Clear
6:55 AM 33.8 °F 21.2 °F 60% 30.15 in 10.0 mi Calm Calm - N/A   Clear
7:15 AM 35.6 °F 28.4 °F 75% 30.16 in 10.0 mi Calm Calm - N/A   Clear
7:35 AM 41.0 °F 28.4 °F 61% 30.16 in 10.0 mi Calm Calm - N/A   Clear
7:55 AM 44.6 °F 28.4 °F 53% 30.16 in 10.0 mi Calm Calm - N/A   Clear
8:15 AM 46.4 °F 21.2 °F 37% 30.16 in 10.0 mi Calm Calm - N/A   Clear
8:35 AM 51.8 °F 15.8 °F 24% 30.16 in 10.0 mi East 4.6 mph - N/A   Clear
8:55 AM 53.6 °F 15.8 °F 22% 30.16 in 10.0 mi East 3.5 mph - N/A   Clear
9:15 AM 55.4 °F 14.0 °F 20% 30.16 in 10.0 mi NE 6.9 mph - N/A   Clear
9:35 AM 57.2 °F 14.0 °F 18% 30.16 in 10.0 mi ENE 5.8 mph - N/A   Clear
9:55 AM 59.0 °F 17.6 °F 20% 30.16 in 10.0 mi NE 8.1 mph - N/A   Clear
10:15 AM 60.8 °F 17.6 °F 19% 30.16 in 10.0 mi NE 8.1 mph - N/A   Clear
10:35 AM 59.0 °F 17.6 °F 20% 30.16 in 10.0 mi ENE 8.1 mph - N/A   Clear
10:55 AM 60.8 °F 19.4 °F 20% 30.16 in 10.0 mi East 8.1 mph - N/A   Clear
11:15 AM 60.8 °F 17.6 °F 19% 30.16 in 10.0 mi East 5.8 mph 11.5 mph N/A   Clear
11:35 AM 60.8 °F 19.4 °F 20% 30.16 in 10.0 mi ENE 10.4 mph - N/A   Clear
11:55 AM 62.6 °F 19.4 °F 19% 30.16 in 10.0 mi ENE 6.9 mph - N/A   Clear
12:15 PM 62.6 °F 19.4 °F 19% 30.16 in 10.0 mi NE 9.2 mph - N/A   Clear
12:35 PM 62.6 °F 19.4 °F 19% 30.16 in 10.0 mi ENE 10.4 mph - N/A   Clear
12:55 PM 64.4 °F 19.4 °F 18% 30.16 in 10.0 mi East 5.8 mph 19.6 mph N/A   Clear
1:15 PM 64.4 °F 19.4 °F 18% 30.16 in 10.0 mi NE 8.1 mph 16.1 mph N/A   Clear
1:35 PM 62.6 °F 19.4 °F 19% 30.16 in 10.0 mi NW 4.6 mph - N/A   Clear
1:55 PM 64.4 °F 26.6 °F 24% 30.16 in 10.0 mi WSW 8.1 mph - N/A   Clear
2:15 PM 64.4 °F 24.8 °F 22% 30.16 in 10.0 mi West 6.9 mph - N/A   Clear
2:35 PM 64.4 °F 19.4 °F 18% 30.16 in 10.0 mi NE 6.9 mph - N/A   Clear
2:55 PM 64.4 °F 17.6 °F 16% 30.16 in 10.0 mi NNE 6.9 mph - N/A   Clear
3:15 PM 64.4 °F 17.6 °F 16% 30.16 in 10.0 mi ENE 11.5 mph 16.1 mph N/A   Clear
3:35 PM 64.4 °F 17.6 °F 16% 30.15 in 10.0 mi NNE 8.1 mph - N/A   Clear
4:15 PM 66.2 °F 28.4 °F 24% 30.15 in 10.0 mi West 9.2 mph - N/A   Clear
4:35 PM 64.4 °F 28.4 °F 26% 30.15 in 10.0 mi West 9.2 mph - N/A   Clear
4:55 PM 64.4 °F 26.6 °F 24% 30.15 in 10.0 mi West 8.1 mph - N/A   Clear
5:15 PM 64.4 °F 28.4 °F 26% 30.15 in 10.0 mi West 12.7 mph - N/A   Clear
5:35 PM 62.6 °F 28.4 °F 27% 30.15 in 10.0 mi West 9.2 mph - N/A   Clear
5:55 PM 62.6 °F 28.4 °F 27% 30.15 in 10.0 mi West 10.4 mph - N/A   Clear
6:15 PM 60.8 °F 28.4 °F 29% 30.15 in 10.0 mi West 8.1 mph - N/A   Clear
6:35 PM 60.8 °F 28.4 °F 29% 30.15 in 10.0 mi West 8.1 mph - N/A   Clear
6:55 PM 60.8 °F 30.2 °F 31% 30.15 in 10.0 mi West 8.1 mph - N/A   Clear
7:15 PM 59.0 °F 30.2 °F 34% 30.15 in 10.0 mi West 8.1 mph - N/A   Clear
7:35 PM 57.2 °F 32.0 °F 38% 30.15 in 10.0 mi West 5.8 mph - N/A   Clear
7:55 PM 55.4 °F 32.0 °F 41% 30.15 in 10.0 mi WSW 3.5 mph - N/A   Clear
8:15 PM 53.6 °F 33.8 °F 47% 30.16 in 10.0 mi SSW 3.5 mph - N/A   Clear
8:35 PM 53.6 °F 33.8 °F 47% 30.15 in 10.0 mi SW 3.5 mph - N/A   Clear
8:55 PM 51.8 °F 33.8 °F 50% 30.16 in 10.0 mi Calm Calm - N/A   Clear
9:15 PM 50.0 °F 32.0 °F 50% 30.16 in 10.0 mi Calm Calm - N/A   Clear
9:35 PM 46.4 °F 32.0 °F 57% 30.16 in 10.0 mi Calm Calm - N/A   Clear
9:55 PM 44.6 °F 32.0 °F 61% 30.16 in 10.0 mi Calm Calm - N/A   Clear
10:15 PM 42.8 °F 30.2 °F 61% 30.16 in 10.0 mi Calm Calm - N/A   Clear
10:35 PM 41.0 °F 30.2 °F 65% 30.16 in 10.0 mi Calm Calm - N/A   Clear
10:55 PM 41.0 °F 28.4 °F 61% 30.16 in 10.0 mi Calm Calm - N/A   Clear
11:15 PM 39.2 °F 26.6 °F 61% 30.16 in 10.0 mi Calm Calm - N/A   Clear
11:35 PM 37.4 °F 26.6 °F 65% 30.16 in 10.0 mi Calm Calm - N/A   Clear
11:55 PM 37.4 °F 23.0 °F 56% 30.16 in 10.0 mi Calm Calm - N/A   Clear